TimePDT,TemperatureF,Dew PointF,Humidity,Sea Level PressureIn,VisibilityMPH,Wind Direction,Wind SpeedMPH,Gust SpeedMPH,PrecipitationIn,Events,Conditions,WindDirDegrees,DateUTC
12:56 AM,66.9,30.9,26,29.92,10.0,West,3.5,-,N/A,,Clear,280,2012-10-05 07:56:00
1:56 AM,60.1,30.9,33,29.94,10.0,Calm,Calm,-,N/A,,Clear,0,2012-10-05 08:56:00
2:56 AM,60.1,30.9,33,29.94,10.0,SSE,3.5,-,N/A,,Clear,150,2012-10-05 09:56:00
3:56 AM,59.0,30.0,33,29.94,10.0,South,3.5,-,N/A,,Clear,170,2012-10-05 10:56:00
4:56 AM,59.0,30.0,33,29.95,10.0,Calm,Calm,-,N/A,,Clear,0,2012-10-05 11:56:00
5:56 AM,57.0,28.9,34,29.96,10.0,Calm,Calm,-,N/A,,Mostly Cloudy,0,2012-10-05 12:56:00
6:56 AM,55.9,30.0,37,29.98,10.0,South,4.6,-,N/A,,Scattered Clouds,190,2012-10-05 13:56:00
7:56 AM,57.9,32.0,37,29.99,10.0,West,5.8,-,N/A,,Scattered Clouds,260,2012-10-05 14:56:00
8:56 AM,69.1,33.1,26,30.00,10.0,Calm,Calm,-,N/A,,Scattered Clouds,0,2012-10-05 15:56:00
9:56 AM,75.0,34.0,22,30.00,10.0,Calm,Calm,-,N/A,,Mostly Cloudy,0,2012-10-05 16:56:00
10:56 AM,80.1,34.0,19,29.98,10.0,Calm,Calm,-,N/A,,Mostly Cloudy,0,2012-10-05 17:56:00
11:56 AM,84.0,33.1,16,29.97,10.0,Calm,Calm,-,N/A,,Mostly Cloudy,0,2012-10-05 18:56:00
12:56 PM,88.0,33.1,14,29.94,10.0,Variable,3.5,-,N/A,,Mostly Cloudy,0,2012-10-05 19:56:00
1:56 PM,89.1,35.1,15,29.91,10.0,SE,4.6,-,N/A,,Mostly Cloudy,130,2012-10-05 20:56:00
2:56 PM,90.0,37.0,15,29.88,10.0,SSE,13.8,-,N/A,,Mostly Cloudy,150,2012-10-05 21:56:00
3:56 PM,90.0,33.1,13,29.88,10.0,SSW,11.5,19.6,N/A,,Mostly Cloudy,200,2012-10-05 22:56:00
4:56 PM,88.0,35.1,15,29.86,10.0,South,13.8,-,N/A,,Mostly Cloudy,190,2012-10-05 23:56:00
5:56 PM,84.0,34.0,17,29.87,10.0,SSW,10.4,-,N/A,,Mostly Cloudy,210,2012-10-06 00:56:00
6:56 PM,80.1,34.0,19,29.87,10.0,South,16.1,-,N/A,,Mostly Cloudy,170,2012-10-06 01:56:00
7:56 PM,78.1,37.0,23,29.87,10.0,South,13.8,19.6,N/A,,Mostly Cloudy,190,2012-10-06 02:56:00
8:56 PM,77.0,37.0,24,29.86,10.0,South,8.1,-,N/A,,Mostly Cloudy,190,2012-10-06 03:56:00
9:56 PM,73.9,37.0,26,29.86,10.0,SSW,8.1,-,N/A,,Mostly Cloudy,210,2012-10-06 04:56:00
10:56 PM,71.1,36.0,28,29.87,10.0,SSW,3.5,-,N/A,,Mostly Cloudy,210,2012-10-06 05:56:00
11:56 PM,66.9,35.1,31,29.87,10.0,South,4.6,-,N/A,,Mostly Cloudy,170,2012-10-06 06:56:00